KE8RXN Weather Reports


Display with metric or nautical units.
time (UTC)temp
F
wind
direction
speed
MPH
gust
MPH
rain 1hr
in
rain 24hr
in
rain mn
in
humidity
%
barometer
mb
20260507215546 54 50 1.0 1.0 0.00 0.00 0.00 43 1014.8
20260507215044 53 323 1.0 1.0 0.00 0.00 0.00 43 1015.0
20260507214541 54 228 3.0 5.0 0.00 0.00 0.00 43 1014.9
20260507214037 53 324 2.0 2.0 0.00 0.00 0.00 44 1015.0
20260507213533 53 268 2.0 2.0 0.00 0.00 0.00 43 1014.9
20260507213030 53 259 2.0 2.0 0.00 0.00 0.00 44 1014.9
20260507212526 54 12 1.0 1.0 0.00 0.00 0.00 44 1014.9
20260507212023 54 301 3.0 5.0 0.00 0.00 0.00 42 1015.0
20260507211520 55 270 2.0 2.0 0.00 0.00 0.00 41 1014.9
20260507211016 54 21 1.0 1.0 0.00 0.00 0.00 43 1015.0
20260507210513 53 7 1.0 1.0 0.00 0.00 0.00 43 1015.0
20260507210010 54 286 3.0 3.0 0.00 0.00 0.00 43 1014.8
20260507205507 53 302 1.0 1.0 0.00 0.00 0.00 43 1015.1
20260507205003 52 223 2.0 3.0 0.00 0.00 0.00 43 1015.1
20260507204459 54 256 2.0 2.0 0.00 0.00 0.00 42 1015.3
20260507203957 55 245 4.0 6.0 0.00 0.00 0.00 42 1015.4
20260507203455 54 290 2.0 2.0 0.00 0.00 0.00 41 1015.5
20260507202951 54 313 3.0 3.0 0.00 0.00 0.00 42 1015.6
20260507202447 54 265 2.0 2.0 0.00 0.00 0.00 42 1015.5
20260507201944 53 347 2.0 2.0 0.00 0.00 0.00 43 1015.8
20260507201439 53 279 2.0 2.0 0.00 0.00 0.00 42 1015.7
20260507200936 54 289 4.0 5.0 0.00 0.00 0.00 41 1016.0
20260507200431 54 336 1.0 1.0 0.00 0.00 0.00 43 1015.8
20260507195927 53 191 7.0 10.0 0.00 0.00 0.00 41 1015.8
20260507195425 54 248 5.0 6.0 0.00 0.00 0.00 41 1016.1
20260507194922 54 335 3.0 3.0 0.00 0.00 0.00 42 1016.1
20260507194419 53 347 2.0 2.0 0.00 0.00 0.00 42 1016.1
20260507193915 53 0 4.0 5.0 0.00 0.00 0.00 42 1016.2
20260507193413 53 298 4.0 7.0 0.00 0.00 0.00 42 1016.1
20260507192909 54 283 3.0 3.0 0.00 0.00 0.00 41 1016.1
20260507192405 53 289 3.0 3.0 0.00 0.00 0.00 41 1016.2
20260507191902 55 300 4.0 5.0 0.00 0.00 0.00 42 1016.4
20260507191358 54 263 4.0 5.0 0.00 0.00 0.00 42 1016.3
20260507190854 53 328 1.0 1.0 0.00 0.00 0.00 41 1016.4
20260507190353 52 227 2.0 2.0 0.00 0.00 0.00 43 1016.4
20260507185851 52 253 4.0 5.0 0.00 0.00 0.00 43 1016.4
20260507185348 52 302 3.0 3.0 0.00 0.00 0.00 42 1016.3
20260507184845 52 216 9.0 10.0 0.00 0.00 0.00 42 1016.3
20260507184343 53 276 2.0 2.0 0.00 0.00 0.00 42 1016.4
20260507183839 52 209 5.0 6.0 0.00 0.00 0.00 42 1016.3
20260507183336 52 242 2.0 2.0 0.00 0.00 0.00 43 1016.3
20260507182834 53 268 5.0 7.0 0.00 0.00 0.00 42 1016.5
20260507182330 53 252 3.0 5.0 0.00 0.00 0.00 42 1016.4
20260507181826 53 242 6.0 7.0 0.00 0.00 0.00 42 1016.5
20260507181322 53 238 4.0 6.0 0.00 0.00 0.00 42 1016.5
20260507180819 52 32 2.0 3.0 0.00 0.00 0.00 44 1016.6
20260507180316 50 279 3.0 3.0 0.00 0.00 0.00 45 1016.6
20260507175811 50 293 3.0 3.0 0.00 0.00 0.00 45 1016.6
20260507175309 49 307 2.0 2.0 0.00 0.00 0.00 46 1016.4
20260507174806 50 268 4.0 6.0 0.00 0.00 0.00 45 1016.6
20260507174304 49 254 5.0 7.0 0.00 0.00 0.00 46 1016.8
20260507173801 50 332 3.0 3.0 0.00 0.00 0.00 46 1016.6
20260507173258 50 40 2.0 3.0 0.00 0.00 0.00 45 1016.7
20260507172754 50 249 3.0 5.0 0.00 0.00 0.00 44 1016.6
20260507172251 51 301 4.0 5.0 0.00 0.00 0.00 44 1016.8
20260507171747 51 275 3.0 5.0 0.00 0.00 0.00 46 1016.9
20260507171244 50 279 8.0 9.0 0.00 0.00 0.00 45 1017.1
20260507170741 49 33 3.0 5.0 0.00 0.00 0.00 46 1017.2
20260507170237 50 238 5.0 7.0 0.00 0.00 0.00 45 1017.3
20260507165733 49 251 3.0 3.0 0.00 0.00 0.00 46 1017.4
20260507165229 49 207 3.0 7.0 0.00 0.00 0.00 45 1017.5
20260507164726 50 245 7.0 8.0 0.00 0.00 0.00 46 1017.4
20260507164223 50 233 4.0 7.0 0.00 0.00 0.00 44 1017.5
20260507163720 50 298 3.0 3.0 0.00 0.00 0.00 47 1017.5
20260507163218 49 306 4.0 5.0 0.00 0.00 0.00 48 1017.6
20260507162714 50 279 3.0 3.0 0.00 0.00 0.00 47 1017.6
20260507162210 50 226 9.0 13.0 0.00 0.00 0.00 47 1017.7
20260507161706 50 197 4.0 6.0 0.00 0.00 0.00 47 1017.6
20260507161203 49 3 2.0 2.0 0.00 0.00 0.00 49 1017.7
20260507160659 50 266 3.0 6.0 0.00 0.00 0.00 48 1017.6
20260507160156 50 238 5.0 7.0 0.00 0.00 0.00 48 1017.8
20260507155651 50 256 5.0 6.0 0.00 0.00 0.00 48 1017.9
20260507155143 50 287 4.0 5.0 0.00 0.00 0.00 49 1017.7
20260507154639 48 301 2.0 2.0 0.00 0.00 0.00 50 1017.8
20260507154137 48 255 6.0 7.0 0.00 0.00 0.00 50 1017.8
20260507153633 49 268 7.0 11.0 0.00 0.00 0.00 49 1017.8
20260507153130 49 250 6.0 8.0 0.00 0.00 0.00 49 1018.0
20260507152626 49 254 6.0 8.0 0.00 0.00 0.00 49 1017.9
20260507152122 49 292 4.0 6.0 0.00 0.00 0.00 50 1017.7
20260507151618 49 246 3.0 3.0 0.00 0.00 0.00 50 1017.7
20260507151115 48 233 5.0 7.0 0.00 0.00 0.00 49 1017.8
20260507150612 49 297 5.0 7.0 0.00 0.00 0.00 49 1017.8
20260507150109 49 256 3.0 3.0 0.00 0.00 0.00 50 1017.7
20260507145603 49 233 6.0 7.0 0.00 0.00 0.00 50 1017.6
20260507145056 48 211 6.0 8.0 0.00 0.00 0.00 50 1017.6
20260507144552 48 295 4.0 5.0 0.00 0.00 0.00 50 1017.6
20260507144051 48 270 5.0 5.0 0.00 0.00 0.00 50 1017.6
20260507143547 48 319 3.0 5.0 0.00 0.00 0.00 50 1017.6
20260507143044 48 236 4.0 6.0 0.00 0.00 0.00 51 1017.8
20260507142539 48 274 4.0 7.0 0.00 0.00 0.00 51 1017.6
20260507142036 47 318 2.0 2.0 0.00 0.00 0.00 54 1017.6
20260507141532 47 330 2.0 2.0 0.00 0.00 0.00 52 1017.7
20260507141029 47 264 5.0 6.0 0.00 0.00 0.00 53 1017.8
20260507140526 48 224 7.0 9.0 0.00 0.00 0.00 53 1017.9
20260507140023 47 300 2.0 2.0 0.00 0.00 0.00 55 1017.7
20260507135520 47 245 5.0 6.0 0.00 0.00 0.00 56 1017.9
20260507135017 47 226 5.0 7.0 0.00 0.00 0.00 54 1017.9
20260507134514 47 19 1.0 2.0 0.00 0.00 0.00 58 1017.9
20260507134009 46 245 3.0 5.0 0.00 0.00 0.00 59 1017.7
20260507133506 46 358 3.0 3.0 0.00 0.00 0.00 59 1017.8
20260507133004 45 304 3.0 3.0 0.00 0.00 0.00 60 1017.7
20260507132500 46 223 4.0 5.0 0.00 0.00 0.00 62 1017.6
20260507131956 46 249 3.0 3.0 0.00 0.00 0.00 66 1017.7
20260507131454 45 232 4.0 5.0 0.00 0.00 0.00 67 1017.4
20260507130950 45 1 1.0 2.0 0.00 0.00 0.00 69 1017.5
20260507130447 45 352 2.0 2.0 0.00 0.00 0.00 69 1017.5
20260507125946 44 278 3.0 3.0 0.00 0.00 0.00 71 1017.6
20260507125444 44 319 1.0 2.0 0.00 0.00 0.00 72 1017.5
20260507124941 44 293 2.0 2.0 0.00 0.00 0.00 72 1017.4
20260507124437 44 290 2.0 2.0 0.00 0.00 0.00 74 1017.5
20260507123936 43 197 3.0 5.0 0.00 0.00 0.00 74 1017.4
20260507123433 43 333 2.0 2.0 0.00 0.00 0.00 75 1017.4
20260507122929 42 306 2.0 2.0 0.00 0.00 0.00 76 1017.3
20260507122424 42 316 2.0 2.0 0.00 0.00 0.00 77 1017.3
20260507121921 42 241 4.0 5.0 0.00 0.00 0.00 76 1017.4
20260507121416 42 322 1.0 2.0 0.00 0.00 0.00 78 1017.3
20260507120913 42 218 3.0 5.0 0.00 0.00 0.00 77 1017.2
20260507120409 42 349 1.0 1.0 0.00 0.00 0.00 77 1017.3
20260507115906 41 351 1.0 1.0 0.00 0.00 0.00 77 1017.3
20260507115402 41 2 1.0 1.0 0.00 0.00 0.00 78 1017.5
20260507114857 41 333 2.0 2.0 0.00 0.00 0.00 77 1017.3
20260507114355 41 338 1.0 1.0 0.00 0.00 0.00 77 1017.1
20260507113852 41 341 1.0 1.0 0.00 0.00 0.00 77 1017.3
20260507113349 41 212 1.0 2.0 0.00 0.00 0.00 77 1017.0
20260507112846 40 336 1.0 1.0 0.00 0.00 0.00 77 1016.8
20260507112343 40 221 2.0 2.0 0.00 0.00 0.00 77 1017.0
20260507111841 39 256 2.0 2.0 0.00 0.00 0.00 78 1017.0
20260507111338 39 227 2.0 2.0 0.00 0.00 0.00 78 1017.0
20260507110834 38 353 1.0 1.0 0.00 0.00 0.00 79 1016.8
20260507110330 38 333 1.0 2.0 0.00 0.00 0.00 79 1016.8
20260507105827 38 22 1.0 1.0 0.00 0.00 0.00 80 1016.7
20260507105324 37 315 1.0 2.0 0.00 0.00 0.00 80 1016.7
20260507104821 37 23 1.0 1.0 0.00 0.00 0.00 80 1016.7
20260507104317 37 11 0.0 1.0 0.00 0.00 0.00 80 1016.5
20260507103813 37 278 1.0 2.0 0.00 0.00 0.00 80 1016.6
20260507103309 37 331 1.0 1.0 0.00 0.00 0.00 80 1016.5
20260507102806 38 27 0.0 0.0 0.00 0.00 0.00 79 1016.5
20260507102306 38 2 1.0 1.0 0.00 0.00 0.00 78 1016.4
20260507101800 38 0 0.0 1.0 0.00 0.00 0.00 78 1016.4
20260507101259 38 22 0.0 0.0 0.00 0.00 0.00 78 1016.5
20260507100757 38 13 0.0 1.0 0.00 0.00 0.00 77 1016.5
20260507100255 38 353 1.0 1.0 0.00 0.00 0.00 77 1016.5
20260507095753 38 255 2.0 2.0 0.00 0.00 0.00 78 1016.4
20260507095249 37 261 2.0 2.0 0.00 0.00 0.00 79 1016.5
20260507094746 37 354 1.0 1.0 0.00 0.00 0.00 80 1016.4
20260507094243 36 19 0.0 1.0 0.00 0.00 0.00 81 1016.6
20260507093740 36 33 0.0 0.0 0.00 0.00 0.00 82 1016.4
20260507093238 36 24 1.0 1.0 0.00 0.00 0.00 82 1016.5
20260507092736 36 36 0.0 0.0 0.00 0.00 0.00 81 1016.4
20260507092231 37 36 0.0 0.0 0.00 0.00 0.00 80 1016.3
20260507091728 37 36 0.0 0.0 0.00 0.00 0.00 80 1016.5
20260507091225 37 36 0.0 0.0 0.00 0.00 0.00 80 1016.4
20260507090720 37 35 0.0 0.0 0.00 0.00 0.00 79 1016.6
20260507090217 38 33 0.0 0.0 0.00 0.00 0.00 78 1016.5
20260507085714 38 33 0.0 0.0 0.00 0.00 0.00 77 1016.5
20260507085211 39 32 0.0 0.0 0.00 0.00 0.00 75 1016.6
20260507084708 39 31 0.0 0.0 0.00 0.00 0.00 74 1016.6
20260507084204 39 32 0.0 0.0 0.00 0.00 0.00 74 1016.6
20260507083702 39 33 0.0 0.0 0.00 0.00 0.00 74 1016.6
20260507083158 40 31 0.0 0.0 0.00 0.00 0.00 74 1016.7
20260507082654 40 13 1.0 1.0 0.00 0.00 0.00 75 1016.6
20260507082150 40 30 0.0 0.0 0.00 0.00 0.00 75 1016.7
20260507081647 40 17 0.0 1.0 0.00 0.00 0.00 75 1016.7
20260507081143 40 27 0.0 0.0 0.00 0.00 0.00 74 1016.9
20260507080640 40 31 0.0 0.0 0.00 0.00 0.00 75 1016.9
20260507080136 39 34 0.0 0.0 0.00 0.00 0.00 77 1016.8
20260507075631 39 29 0.0 0.0 0.00 0.00 0.00 79 1017.0
20260507075128 39 24 0.0 1.0 0.00 0.00 0.00 80 1017.1
20260507074625 39 33 0.0 0.0 0.00 0.00 0.00 80 1017.0
20260507074123 39 33 0.0 0.0 0.00 0.00 0.00 79 1016.9
20260507073619 39 28 0.0 0.0 0.00 0.00 0.00 78 1016.8
20260507073115 39 26 0.0 0.0 0.00 0.00 0.00 77 1016.9
20260507072613 39 22 0.0 1.0 0.00 0.00 0.00 78 1016.8
20260507072110 39 26 0.0 0.0 0.00 0.00 0.00 77 1016.8
20260507071608 40 24 0.0 1.0 0.00 0.00 0.00 77 1016.9
20260507071104 40 29 0.0 0.0 0.00 0.00 0.00 76 1017.0
20260507070601 40 28 0.0 0.0 0.00 0.00 0.00 75 1016.8
20260507070058 40 32 0.0 0.0 0.00 0.00 0.00 74 1016.9
20260507065554 41 33 0.0 0.0 0.00 0.00 0.00 74 1016.8
20260507065052 41 31 0.0 0.0 0.00 0.00 0.00 73 1016.8
20260507064549 41 31 0.0 0.0 0.00 0.00 0.00 73 1017.1
20260507064048 42 32 0.0 0.0 0.00 0.00 0.00 72 1017.0
20260507063544 42 19 0.0 1.0 0.00 0.00 0.00 72 1017.2
20260507063042 42 27 0.0 0.0 0.00 0.00 0.00 72 1017.1
20260507062538 42 29 0.0 0.0 0.00 0.00 0.00 71 1017.3
20260507062036 42 18 1.0 1.0 0.00 0.00 0.00 71 1017.1
20260507061533 43 21 1.0 1.0 0.00 0.00 0.00 70 1017.0
20260507061031 43 15 0.0 1.0 0.00 0.00 0.00 70 1017.0
20260507060529 43 8 1.0 1.0 0.00 0.00 0.00 70 1017.0
20260507060025 44 5 1.0 2.0 0.00 0.00 0.00 69 1017.0
20260507055520 44 338 1.0 2.0 0.00 0.00 0.00 69 1017.2
20260507055016 44 358 1.0 1.0 0.00 0.00 0.00 69 1017.1
20260507054513 44 347 2.0 2.0 0.00 0.00 0.00 68 1017.0
20260507054010 44 288 2.0 2.0 0.00 0.00 0.00 68 1017.1
20260507053508 44 358 1.0 2.0 0.00 0.00 0.00 68 1017.2
20260507053006 44 10 1.0 1.0 0.00 0.00 0.00 67 1017.3
20260507052504 44 15 1.0 1.0 0.00 0.00 0.00 69 1017.1
20260507052000 44 18 0.0 1.0 0.00 0.00 0.00 69 1017.1
20260507051458 44 16 1.0 1.0 0.00 0.00 0.00 70 1017.2
20260507050954 43 26 0.0 1.0 0.00 0.00 0.00 70 1017.1
20260507050450 43 33 0.0 0.0 0.00 0.00 0.00 71 1017.2
20260507045948 43 33 0.0 0.0 0.00 0.00 0.00 71 1017.1
20260507045444 43 33 0.0 0.0 0.00 0.00 0.00 72 1017.2
20260507044941 43 33 0.0 0.0 0.00 0.00 0.00 72 1017.1
20260507044438 43 33 0.0 0.0 0.00 0.00 0.00 73 1017.1
20260507043934 43 33 0.0 0.0 0.00 0.00 0.00 72 1017.1
20260507043431 43 33 0.0 0.0 0.00 0.00 0.00 72 1017.1
20260507042927 43 33 0.0 0.0 0.00 0.00 0.00 70 1017.3
20260507042424 43 33 0.0 0.0 0.00 0.00 0.00 70 1017.0
20260507041919 43 34 0.0 0.0 0.00 0.00 0.00 70 1017.2
20260507041416 43 33 0.0 0.0 0.00 0.00 0.00 71 1017.1
20260507040914 42 33 0.0 0.0 0.00 0.00 0.00 72 1017.0
20260507040409 42 33 0.0 0.0 0.00 0.00 0.00 71 1017.2
20260507035905 42 34 0.0 0.0 0.00 0.00 0.00 69 1017.2
20260507035402 42 33 0.0 0.0 0.00 0.00 0.00 69 1017.2
20260507034859 42 33 0.0 0.0 0.00 0.00 0.00 66 1017.3
20260507034355 43 33 0.0 0.0 0.00 0.00 0.00 65 1017.2
20260507033854 44 33 0.0 0.0 0.00 0.00 0.00 65 1017.3
20260507033352 44 33 0.0 0.0 0.00 0.00 0.00 64 1017.2
20260507032848 44 35 0.0 0.0 0.00 0.00 0.00 62 1017.3
20260507032345 44 35 0.0 0.0 0.00 0.00 0.00 61 1017.2
20260507031841 45 33 0.0 0.0 0.00 0.00 0.00 60 1017.3
20260507031338 45 20 0.0 1.0 0.00 0.00 0.00 59 1017.4
20260507030834 45 26 0.0 0.0 0.00 0.00 0.00 58 1017.3
20260507030332 45 34 0.0 0.0 0.00 0.00 0.00 59 1017.3
20260507025829 46 34 0.0 0.0 0.00 0.00 0.00 59 1017.2
20260507025326 46 33 0.0 0.0 0.00 0.00 0.00 58 1017.4
20260507024824 46 32 0.0 0.0 0.00 0.00 0.00 57 1017.3
20260507024321 47 31 0.0 0.0 0.00 0.00 0.00 56 1017.2
20260507023817 47 5 1.0 1.0 0.00 0.00 0.00 55 1017.3
20260507023313 47 27 0.0 1.0 0.00 0.00 0.00 54 1017.3
20260507022811 47 27 0.0 0.0 0.00 0.00 0.00 54 1017.2
20260507022307 47 8 1.0 1.0 0.00 0.00 0.00 54 1017.2
20260507021803 47 28 0.0 0.0 0.00 0.00 0.00 54 1017.3
20260507021259 47 7 1.0 1.0 0.00 0.00 0.00 53 1017.2
20260507020757 47 26 0.0 0.0 0.00 0.00 0.00 54 1017.1
20260507020253 47 60 1.0 1.0 0.00 0.00 0.00 54 1017.1
20260507015751 47 21 0.0 1.0 0.00 0.00 0.00 53 1017.0
20260507015248 48 33 0.0 0.0 0.00 0.00 0.00 55 1016.9
20260507014745 48 27 0.0 0.0 0.00 0.00 0.00 53 1016.9
20260507014241 48 335 0.0 1.0 0.00 0.00 0.00 53 1016.9
20260507013738 48 348 1.0 1.0 0.00 0.00 0.00 53 1016.8
20260507013235 48 22 0.0 0.0 0.00 0.00 0.00 53 1016.8
20260507012732 48 31 0.0 0.0 0.00 0.00 0.00 53 1016.9
20260507012228 48 300 1.0 1.0 0.00 0.00 0.00 52 1016.8
20260507011726 48 279 1.0 2.0 0.00 0.00 0.00 51 1016.7
20260507011222 48 13 0.0 1.0 0.00 0.00 0.00 51 1016.9
20260507010722 49 20 0.0 1.0 0.00 0.00 0.00 50 1016.7
20260507010218 49 328 1.0 1.0 0.00 0.00 0.00 49 1017.0
20260507005716 49 304 2.0 2.0 0.00 0.00 0.00 49 1016.7
20260507005212 49 21 1.0 1.0 0.00 0.00 0.00 50 1016.8
20260507004709 49 319 2.0 2.0 0.00 0.00 0.00 48 1016.6
20260507004206 49 239 2.0 3.0 0.00 0.00 0.00 49 1016.8
20260507003702 49 317 1.0 2.0 0.00 0.00 0.00 48 1016.6
20260507003157 49 336 1.0 1.0 0.00 0.00 0.00 48 1016.6
20260507002654 50 22 1.0 1.0 0.00 0.00 0.00 48 1016.6
20260507002150 50 256 2.0 2.0 0.00 0.00 0.00 47 1016.6
20260507001647 50 317 1.0 1.0 0.00 0.00 0.00 47 1016.5
20260507001144 50 258 3.0 5.0 0.00 0.00 0.00 47 1016.4
20260507000641 50 20 1.0 1.0 0.00 0.00 0.00 47 1016.4
20260507000136 50 344 1.0 1.0 0.00 0.00 0.00 47 1016.3
20260506235633 50 20 1.0 1.0 0.00 0.00 0.00 47 1016.4
20260506235128 50 1 1.0 1.0 0.00 0.00 0.00 46 1016.5
20260506234626 50 320 1.0 2.0 0.00 0.00 0.00 46 1016.4
20260506234122 50 271 3.0 3.0 0.00 0.00 0.00 45 1016.4
20260506233620 50 305 1.0 2.0 0.00 0.00 0.00 45 1016.4
20260506233117 50 356 1.0 1.0 0.00 0.00 0.00 45 1016.3
20260506232612 51 2 1.0 2.0 0.00 0.00 0.00 44 1016.5
20260506232108 51 273 5.0 6.0 0.00 0.00 0.00 43 1016.3
20260506231605 51 325 2.0 2.0 0.00 0.00 0.00 43 1016.3
20260506231104 51 253 4.0 5.0 0.00 0.00 0.00 43 1016.2
20260506230600 51 325 4.0 6.0 0.00 0.00 0.00 42 1016.3
20260506230057 52 313 3.0 3.0 0.00 0.00 0.00 43 1016.3
20260506225554 52 293 2.0 2.0 0.00 0.00 0.00 43 1016.2
20260506225050 52 265 7.0 9.0 0.00 0.00 0.00 41 1016.3
20260506224547 52 227 3.0 3.0 0.00 0.00 0.00 41 1016.3
20260506224044 53 340 2.0 2.0 0.00 0.00 0.00 41 1016.4
20260506223539 53 275 3.0 5.0 0.00 0.00 0.00 40 1016.3
20260506223036 53 308 2.0 2.0 0.00 0.00 0.00 41 1016.3
20260506222533 53 344 3.0 5.0 0.00 0.00 0.00 40 1016.3
20260506222029 53 309 5.0 7.0 0.00 0.00 0.00 40 1016.4
20260506221527 53 253 3.0 3.0 0.00 0.00 0.00 40 1016.2
20260506221025 53 286 4.0 6.0 0.00 0.00 0.00 39 1016.4
20260506220521 53 241 4.0 5.0 0.00 0.00 0.00 40 1016.3
20260506220016 54 236 3.0 6.0 0.00 0.00 0.00 40 1016.2